Home > Weather > Caen > Past weeks

Flag for France Weather for the Past 2 Weeks in Caen, France

Now
45 °F

Clear.


Feels Like: 36 °F
Forecast: 40 / 48 °F
Wind: 22 mph from Southwest

Location: Caen Airport

Current Time: Feb 8, 2016 at 9:17:48 PM

Latest Report: Feb 8, 2016 at 8:30 PM


Visibility: 10 mi

Pressure: 29.62 "Hg

Humidity: 81%

Dew point: 39 °F

Location of CaenLocation

Historic Weather in Caen — Graph

°F

Caen Temperature Yesterday

Maximum temperature yesterday: 50 °F (at 2:30 PM)
Minimum temperature yesterday: 41 °F (at 6:00 AM)
Average temperature yesterday: 46 °F

High & Low Weather Summary for the Past Weeks

 TemperatureHumidityPressure
High55 °F (Jan 25, 1:00 PM)100% (Jan 24, 8:00 PM)30.51 "Hg (Jan 24, 8:00 PM)
Low37 °F (Jan 28, 9:30 PM)54% (Jan 28, 3:30 PM)29.30 "Hg (Feb 6, 10:00 PM)
Average49 °F84%30.07 "Hg
* Reported Jan 24 8:00 PM — Feb 8 8:00 PM, Caen, Weather by CustomWeather, © 2016

Note: Actual official high and low records may vary slightly from our data, if they occured in-between our weather recording intervals... More about our weather records

Advertising

Caen Weather History for the Previous 24 Hours

 ConditionsComfort  
Time TempWeatherWind HumidityBarometerVisibility
8:00 PM
Mon, Feb 8
45 °FPartly cloudy.21 mph81%29.62 "HgN/A
7:30 PM45 °FPassing clouds.21 mph87%29.62 "HgN/A
7:00 PM46 °FCool.22 mph71%29.59 "HgN/A
6:30 PM46 °FClear.30 mph71%29.59 "Hg10 mi
6:00 PM45 °FLight rain. Scattered clouds.25 mph81%29.56 "HgN/A
5:30 PM45 °FPartly sunny.30 mph81%29.56 "HgN/A
5:00 PM46 °FLight rain. Broken clouds.28 mph76%29.56 "HgN/A
4:30 PM48 °FMostly cloudy.28 mph71%29.53 "HgN/A
4:00 PM48 °FPartly sunny.32 mph71%29.53 "HgN/A
3:30 PM46 °FPartly sunny.31 mph82%29.50 "HgN/A
3:00 PM48 °FPassing clouds.31 mph71%29.50 "HgN/A
2:30 PM48 °FScattered clouds.35 mph66%29.50 "Hg5 mi
2:00 PM48 °FMostly cloudy.31 mph76%29.47 "HgN/A
1:30 PM46 °FScattered clouds.29 mph76%29.47 "HgN/A
1:00 PM45 °FLight rain. Partly sunny.38 mph76%29.47 "HgN/A
12:30 PM46 °FPassing clouds.33 mph76%29.45 "Hg5 mi
12:00 PM45 °FLight rain. Broken clouds.33 mph81%29.45 "Hg4 mi
11:30 AM46 °FLight rain. Partly sunny.26 mph76%29.45 "HgN/A
11:00 AM46 °FBroken clouds.26 mph76%29.45 "HgN/A
10:30 AM48 °FPassing clouds.25 mph71%29.42 "HgN/A
10:00 AM45 °FLight rain. Partly sunny.29 mph81%29.42 "HgN/A
9:30 AM45 °FLight rain. Fog.39 mph81%29.42 "Hg2 mi
9:00 AM48 °FBroken clouds.24 mph71%29.39 "HgN/A
8:30 AM46 °FScattered clouds.28 mph82%29.39 "HgN/A
8:00 AM46 °FLight rain. Fog.32 mph93%29.39 "Hg3 mi
7:30 AM48 °FLight rain. Partly cloudy.30 mph76%29.36 "HgN/A
7:00 AM48 °FPartly cloudy.28 mph76%29.36 "HgN/A
6:30 AM48 °FPassing clouds.24 mph76%29.36 "HgN/A
6:00 AM48 °FPartly cloudy.32 mph76%29.36 "HgN/A
5:30 AM48 °FLight rain. Passing clouds.28 mph87%29.36 "Hg4 mi
5:00 AM50 °FRain. Partly cloudy.26 mph82%29.36 "Hg4 mi
4:30 AM52 °FClear.26 mph72%29.36 "Hg10 mi
4:00 AM52 °FPassing clouds.25 mph77%29.36 "HgN/A
3:30 AM50 °FPassing clouds.21 mph82%29.36 "HgN/A
3:00 AM48 °FLight rain. Mostly cloudy.28 mph87%29.39 "Hg4 mi
2:00 AM50 °FLight rain. Fog.32 mph88%29.36 "Hg2 mi
1:30 AM52 °FLight rain. Mostly cloudy.28 mph94%29.36 "Hg4 mi
12:30 AM52 °FPassing clouds.31 mph88%29.39 "HgN/A
12:00 AM52 °FPassing clouds.32 mph82%29.42 "HgN/A
11:30 PM
Sun, Feb 7
50 °FOvercast.30 mph88%29.42 "HgN/A
11:00 PM50 °FOvercast.26 mph88%29.45 "HgN/A
10:30 PM50 °FOvercast.26 mph82%29.47 "HgN/A
10:00 PM48 °FMostly cloudy.25 mph87%29.47 "HgN/A
9:30 PM46 °FMostly cloudy.25 mph87%29.50 "HgN/A
9:00 PM46 °FMostly cloudy.24 mph87%29.53 "HgN/A
Weather by CustomWeather, © 2016

See weather overviewHow to use our weather pages